Date,TemperatureHighF,TemperatureAvgF,TemperatureLowF,DewpointHighF,DewpointAvgF,DewpointLowF,HumidityHigh,HumidityAvg,HumidityLow,PressureMaxIn,PressureMinIn,WindSpeedMaxMPH,WindSpeedAvgMPH,GustSpeedMaxMPH,PrecipitationSumIn
2013-1-1,34,19,1,20,8,-6,80,63,38,25.66,25.54,0,0,0,0.00
2013-1-2,30,22,15,20,12,7,86,65,43,25.81,25.60,0,0,0,0.00
2013-1-3,37,16,-3,17,6,-8,82,65,40,25.81,25.69,0,0,0,0.00
2013-1-4,47,25,13,15,6,-1,56,45,25,25.69,25.60,0,0,0,0.00
2013-1-5,37,26,11,16,10,2,83,52,36,25.75,25.63,0,0,0,0.00
2013-1-6,51,18,6,13,6,1,79,65,21,25.75,25.48,0,0,0,0.00
2013-1-8,44,32,0,27,18,0,90,62,33,25.69,25.37,0,0,0,0.00
2013-1-9,54,37,15,21,17,12,89,50,26,25.43,25.43,0,0,0,0.00
2013-1-10,57,46,31,19,13,8,51,28,17,25.43,25.10,0,0,0,0.00
2013-1-11,31,15,3,24,6,-8,89,67,53,25.34,25.07,0,0,0,0.00
2013-1-12,15,7,3,2,-7,-13,58,51,44,25.63,25.34,0,0,0,0.00
2013-1-13,18,6,-4,0,-11,-20,46,45,41,25.66,25.60,0,0,0,0.00
2013-1-14,20,8,-3,-2,-10,-19,46,42,37,25.66,25.57,0,0,0,0.00
2013-1-15,40,26,-4,26,12,-23,81,53,40,25.57,25.48,0,0,0,0.00
2013-1-16,46,37,23,23,16,13,70,44,31,25.84,25.51,0,0,0,0.00
2013-1-17,47,30,17,20,15,11,87,58,30,25.90,25.60,0,0,0,0.00
2013-1-18,55,37,22,17,12,8,63,39,20,25.60,25.51,0,0,0,0.00
2013-1-19,44,30,19,18,15,12,84,56,31,25.78,25.54,0,0,0,0.00
2013-1-20,30,18,9,19,8,0,92,68,41,25.87,25.63,0,0,0,0.00
2013-1-21,25,12,5,8,2,-3,69,64,45,25.81,25.60,0,0,0,0.00
2013-1-22,47,22,8,21,8,-2,88,56,27,25.66,25.57,0,0,0,0.00
2013-1-23,26,17,9,10,6,2,73,62,45,25.78,25.63,0,0,0,0.00
2013-1-24,60,30,8,21,13,1,87,55,19,25.69,25.48,0,0,0,0.00
2013-1-25,49,28,18,22,17,14,91,68,32,25.69,25.60,0,0,0,0.00
2013-1-26,51,35,23,22,19,14,80,56,31,25.60,25.40,0,0,0,0.00
2013-1-27,55,34,22,28,21,17,96,63,35,25.40,25.28,0,0,0,0.00
2013-1-28,32,28,22,29,24,20,98,86,68,25.43,25.34,0,0,0,0.00
2013-1-29,34,20,7,21,9,-7,96,65,40,25.54,25.31,0,0,0,0.00
2013-1-30,27,13,-2,16,1,-15,85,59,42,25.51,25.34,0,0,0,0.00
2013-1-31,14,8,4,5,-4,-13,69,58,45,25.69,25.43,0,0,0,0.00
2013-2-1,46,29,11,34,18,-6,98,66,40,25.69,25.54,0,0,0,0.00
2013-2-2,41,32,20,28,17,13,95,56,36,25.78,25.69,0,0,0,0.00
2013-2-3,54,34,17,24,15,10,91,51,19,25.75,25.43,0,0,0,0.00
2013-2-4,49,33,22,21,17,13,80,54,29,25.51,25.40,0,0,0,0.00
2013-2-5,48,36,27,23,20,17,82,54,36,25.57,25.40,0,0,0,0.00
2013-2-6,51,34,23,24,19,16,87,57,33,25.63,25.37,0,0,0,0.00
2013-2-7,45,32,18,18,14,10,80,51,28,25.69,25.63,0,0,0,0.00
2013-3-11,46,34,26,24,13,4,63,43,29,0.00,40.00,0,0,0,0.00
2013-3-12,38,27,19,7,2,-1,45,35,24,0.00,40.00,0,0,0,0.00
2013-3-13,64,44,23,26,17,1,54,35,24,0.00,40.00,0,0,0,0.00
2013-3-14,72,50,32,31,24,20,67,40,19,0.00,40.00,0,0,0,0.00
2013-3-15,68,49,32,28,23,20,76,38,18,0.00,40.00,0,0,0,0.00
2013-3-16,35,29,25,32,26,21,98,87,68,0.00,40.00,0,0,0,0.00
2013-3-17,57,33,22,35,21,8,98,65,29,25.34,25.01,0,0,0,0.08
2013-3-18,37,26,17,11,4,-2,55,40,25,25.48,25.34,0,0,0,0.00
2013-3-19,31,31,31,1,1,1,28,28,28,0.00,40.00,0,0,0,0.00
2013-3-20,31,31,31,1,1,1,28,28,28,0.00,40.00,0,0,0,0.00
2013-3-21,31,31,31,1,1,1,28,28,28,0.00,40.00,0,0,0,0.00
2013-3-22,31,31,31,1,1,1,28,28,28,0.00,40.00,0,0,0,0.00
2013-3-23,31,31,31,1,1,1,28,28,28,0.00,40.00,0,0,0,0.00
2013-3-24,31,31,31,1,1,1,28,28,28,0.00,40.00,0,0,0,0.00
2013-3-25,31,31,31,1,1,1,28,28,28,0.00,40.00,0,0,0,0.00
2013-3-26,31,31,31,1,1,1,28,28,28,0.00,40.00,0,0,0,0.00
2013-3-27,64,39,21,22,13,1,71,37,18,25.69,25.48,0,0,0,0.08
2013-3-28,68,43,26,29,22,16,79,49,20,25.72,25.63,0,0,0,0.08
2013-3-29,75,48,28,32,24,20,81,47,17,25.72,25.60,0,0,0,0.08
2013-3-30,66,42,27,39,29,18,95,64,25,25.75,25.66,0,0,0,0.08
2013-3-31,58,36,24,32,23,12,94,65,33,25.75,25.54,0,0,0,0.08
2013-4-1,57,34,20,33,20,16,98,63,27,25.75,25.69,0,0,0,0.08
2013-4-2,66,39,21,26,19,16,90,52,23,25.75,25.69,0,0,0,0.08
2013-4-3,80,51,25,31,24,15,76,40,13,25.78,25.57,0,0,0,0.08
2013-4-4,60,41,26,29,21,12,91,50,25,25.75,25.60,0,0,0,0.08
2013-4-5,71,47,29,36,24,13,66,43,23,25.60,25.28,0,0,0,0.08
2013-4-6,69,51,36,34,27,19,69,42,23,25.45,25.37,0,0,0,0.08
2013-4-7,69,45,34,47,33,22,98,67,27,25.45,25.28,0,0,0,0.08
2013-4-8,46,30,14,46,26,10,98,84,46,25.69,25.28,0,0,0,0.00
2013-4-9,19,12,9,10,4,1,84,70,53,25.87,25.69,0,0,0,0.08
2013-4-10,36,21,10,15,10,2,82,64,42,25.78,25.51,0,0,0,0.08
2013-4-11,48,25,7,30,15,0,98,67,37,25.51,25.37,0,0,0,0.08
2013-4-12,48,31,15,35,21,11,98,70,39,25.54,25.45,0,0,0,0.08
2013-4-13,59,35,15,32,24,12,98,70,31,25.54,25.04,0,0,0,0.08
2013-4-14,47,32,18,34,18,6,98,58,33,25.40,25.22,0,0,0,0.08
2013-4-15,50,27,14,17,9,3,67,47,28,25.66,25.37,0,0,0,0.08
2013-4-16,36,24,15,21,14,5,89,64,43,25.78,25.63,0,0,0,0.08
2013-4-17,34,25,20,22,18,14,91,74,46,25.78,25.72,0,0,0,0.08
2013-4-18,44,27,18,17,10,5,83,52,30,25.72,25.57,0,0,0,0.08
2013-4-19,50,35,24,30,25,10,94,69,38,25.60,25.54,0,0,0,0.08
2013-4-20,65,41,29,37,31,25,98,73,28,25.57,25.48,0,0,0,0.08
2013-4-21,55,39,30,37,32,25,98,80,36,25.72,25.54,0,0,0,0.08
2013-4-22,36,25,12,29,18,8,98,75,42,25.93,25.69,0,0,0,0.08
2013-4-23,58,26,9,21,12,5,90,60,24,25.90,25.66,0,0,0,0.08
2013-4-24,50,33,20,22,16,12,82,53,32,25.72,25.63,0,0,0,0.08
2013-4-25,77,47,20,24,19,14,92,43,13,25.66,25.45,0,0,0,0.08
2013-4-26,79,50,30,32,24,18,69,41,15,25.78,25.60,0,0,0,0.08
2013-4-27,84,57,34,34,26,19,63,36,13,25.75,25.51,0,0,0,0.08
2013-4-28,78,54,41,44,31,23,98,47,23,25.60,25.45,0,0,0,0.08
2013-4-29,79,56,34,48,34,26,98,54,18,25.54,25.10,0,0,0,0.08
2013-4-30,60,42,31,32,20,15,70,44,24,25.75,25.31,0,0,0,0.08
2013-5-1,54,35,23,20,13,6,58,41,26,26.13,25.75,0,0,0,0.08
2013-5-2,63,38,20,26,14,8,65,40,19,26.16,25.96,0,0,0,0.08
2013-5-3,72,46,25,24,16,10,62,35,14,25.96,25.75,0,0,0,0.08
2013-5-4,66,44,25,21,15,10,64,36,15,25.87,25.78,0,0,0,0.08
2013-5-5,72,46,26,27,17,10,56,35,15,25.87,25.75,0,0,0,0.08
2013-5-6,80,53,29,30,22,17,65,36,15,25.75,25.63,0,0,0,0.08
2013-5-7,89,58,34,39,31,22,70,41,18,25.66,25.51,0,0,0,0.08
2013-5-8,82,58,38,38,32,26,77,42,21,25.78,25.57,0,0,0,0.00
2013-5-9,78,53,37,44,36,30,95,56,27,25.81,25.75,0,0,0,0.08
2013-5-10,81,54,35,53,36,24,98,62,15,25.96,25.75,0,0,0,0.08
2013-5-11,74,51,27,32,28,20,93,48,21,25.99,25.81,0,0,0,0.00
2013-5-12,87,60,33,37,32,26,80,41,16,25.81,25.63,0,0,0,0.08
2013-5-13,102,73,53,42,37,32,58,30,12,25.66,25.48,0,0,0,0.08
2013-5-14,89,69,47,44,36,27,60,32,19,25.63,25.43,0,0,0,0.08
2013-5-15,88,64,39,40,34,29,72,37,19,25.69,25.54,0,0,0,0.08
2013-5-16,85,61,50,65,47,35,98,64,27,25.54,25.45,0,0,0,0.08
2013-5-17,89,65,46,58,48,41,98,61,29,25.54,25.45,0,0,0,0.08
2013-5-18,80,57,48,56,50,45,98,79,34,25.54,25.45,0,0,0,0.08
2013-5-19,65,53,45,58,50,43,98,90,47,25.45,25.37,0,0,0,0.12
2013-5-20,62,48,42,45,40,35,98,74,43,25.54,25.31,0,0,0,0.24
2013-5-21,55,46,40,43,37,31,98,75,45,25.57,25.51,0,0,0,0.16